FW6610 Weather Reports


Display with metric or nautical units.
time (UTC)temp
F
wind
direction
speed
MPH
gust
MPH
rain 1hr
in
rain 24hr
in
rain mn
in
humidity
%
barometer
mb
20260505004539 61 163 1.0 6.0 0.00 0.00 0.00 56 1009.1
20260505004029 62 148 2.0 6.0 0.00 0.00 0.00 55 1009.1
20260505003532 62 135 1.0 6.0 0.00 0.00 0.00 56 1009.0
20260505003040 62 157 1.0 6.0 0.00 0.00 0.00 55 1008.9
20260505002529 62 146 1.0 4.0 0.00 0.00 0.00 55 1008.8
20260505002030 62 137 1.0 6.0 0.00 0.00 0.00 54 1008.8
20260505001545 63 171 1.0 6.0 0.00 0.00 0.00 54 1008.7
20260505001029 63 160 2.0 6.0 0.00 0.00 0.00 52 1008.3
20260505000529 63 159 2.0 6.0 0.00 0.00 0.00 52 1008.4
20260505000047 63 140 2.0 6.0 0.00 0.00 0.00 52 1008.4
20260504235530 64 151 1.0 6.0 0.00 0.00 0.00 52 1008.2
20260504235030 64 154 2.0 6.0 0.00 0.00 0.00 51 1008.2
20260504234541 65 147 2.0 5.0 0.00 0.00 0.00 50 1008.0
20260504234030 65 160 2.0 5.0 0.00 0.00 0.00 49 1007.9
20260504233531 66 176 2.0 5.0 0.00 0.00 0.00 47 1007.9
20260504233040 67 148 3.0 5.0 0.00 0.00 0.00 45 1007.9
20260504232533 68 209 1.0 4.0 0.00 0.00 0.00 42 1007.6
20260504232030 68 0 0.0 4.0 0.00 0.00 0.00 39 1007.6
20260504231535 68 149 1.0 4.0 0.00 0.00 0.00 38 1007.4
20260504231029 69 200 1.0 8.0 0.00 0.00 0.00 38 1007.2
20260504230529 69 122 2.0 8.0 0.00 0.00 0.00 37 1007.2
20260504230046 69 136 1.0 4.0 0.00 0.00 0.00 37 1007.2
20260504225530 70 169 2.0 4.0 0.00 0.00 0.00 36 1007.2
20260504225032 70 153 1.0 4.0 0.00 0.00 0.00 37 1007.3
20260504224546 71 194 1.0 3.0 0.00 0.00 0.00 37 1007.3
20260504224030 71 283 1.0 5.0 0.00 0.00 0.00 35 1007.2
20260504223530 72 154 1.0 7.0 0.00 0.00 0.00 37 1007.1
20260504223039 72 212 1.0 7.0 0.00 0.00 0.00 35 1007.1
20260504222529 72 131 2.0 6.0 0.00 0.00 0.00 36 1007.2
20260504222032 72 164 2.0 6.0 0.00 0.00 0.00 35 1007.3
20260504221535 73 181 2.0 6.0 0.00 0.00 0.00 34 1007.2
20260504221029 72 220 2.0 6.0 0.00 0.00 0.00 35 1007.4
20260504220530 72 24 2.0 8.0 0.00 0.00 0.00 34 1007.3
20260504220042 72 131 3.0 11.0 0.00 0.00 0.00 35 1007.4
20260504215530 73 172 4.0 11.0 0.00 0.00 0.00 33 1007.5
20260504215032 73 145 2.0 6.0 0.00 0.00 0.00 34 1007.4
20260504214552 72 200 2.0 7.0 0.00 0.00 0.00 34 1007.3
20260504214032 72 294 2.0 7.0 0.00 0.00 0.00 36 1007.4
20260504213529 72 323 3.0 7.0 0.00 0.00 0.00 36 1007.6
20260504213036 71 0 1.0 11.0 0.00 0.00 0.00 37 1007.5
20260504212529 71 291 3.0 11.0 0.00 0.00 0.00 34 1007.5
20260504212032 72 212 2.0 11.0 0.00 0.00 0.00 37 1007.3
20260504211547 72 196 4.0 11.0 0.00 0.00 0.00 35 1007.6
20260504211031 73 210 3.0 11.0 0.00 0.00 0.00 34 1007.5
20260504210530 73 262 3.0 11.0 0.00 0.00 0.00 34 1007.5
20260504210057 73 135 1.0 7.0 0.00 0.00 0.00 35 1007.5
20260504205529 73 214 3.0 9.0 0.00 0.00 0.00 36 1007.4
20260504205029 72 215 2.0 9.0 0.00 0.00 0.00 39 1007.5
20260504204558 72 234 3.0 8.0 0.00 0.00 0.00 37 1007.5
20260504204029 71 131 3.0 11.0 0.00 0.00 0.00 38 1007.5
20260504203529 71 228 5.0 11.0 0.00 0.00 0.00 36 1007.5
20260504203049 72 268 3.0 8.0 0.00 0.00 0.00 37 1007.4
20260504202529 72 188 4.0 8.0 0.00 0.00 0.00 37 1007.4
20260504202028 71 153 4.0 8.0 0.00 0.00 0.00 37 1007.5
20260504201539 71 207 2.0 12.0 0.00 0.00 0.00 35 1007.5
20260504201029 71 239 3.0 12.0 0.00 0.00 0.00 35 1007.5
20260504200529 71 281 2.0 8.0 0.00 0.00 0.00 37 1007.6
20260504200047 72 309 2.0 7.0 0.00 0.00 0.00 37 1007.6
20260504195529 73 280 3.0 6.0 0.00 0.00 0.00 35 1007.7
20260504195029 73 234 2.0 9.0 0.00 0.00 0.00 34 1007.7
20260504194545 73 147 3.0 11.0 0.00 0.00 0.00 35 1007.6
20260504194030 73 222 4.0 11.0 0.00 0.00 0.00 34 1007.6
20260504193530 73 210 2.0 8.0 0.00 0.00 0.00 35 1007.6
20260504193044 73 133 2.0 8.0 0.00 0.00 0.00 36 1007.6
20260504192529 73 20 2.0 13.0 0.00 0.00 0.00 38 1007.7
20260504192029 72 140 3.0 13.0 0.00 0.00 0.00 34 1007.5
20260504191542 72 205 7.0 13.0 0.00 0.00 0.00 36 1007.6
20260504191031 72 156 4.0 8.0 0.00 0.00 0.00 38 1007.8
20260504190530 72 205 2.0 5.0 0.00 0.00 0.00 37 1007.7
20260504190038 71 92 2.0 7.0 0.00 0.00 0.00 38 1007.9
20260504185529 71 219 3.0 8.0 0.00 0.00 0.00 38 1007.8
20260504185032 72 187 3.0 8.0 0.00 0.00 0.00 34 1008.0
20260504184537 71 299 1.0 13.0 0.00 0.00 0.00 38 1007.9
20260504184029 71 332 4.0 13.0 0.00 0.00 0.00 37 1008.1
20260504183530 71 221 4.0 13.0 0.00 0.00 0.00 38 1008.0
20260504183045 71 354 3.0 11.0 0.00 0.00 0.00 38 1008.1
20260504182529 72 145 3.0 15.0 0.00 0.00 0.00 34 1008.2
20260504182029 71 295 3.0 15.0 0.00 0.00 0.00 36 1008.1
20260504181540 72 342 2.0 13.0 0.00 0.00 0.00 38 1008.2
20260504181029 71 227 3.0 10.0 0.00 0.00 0.00 37 1008.3
20260504180530 71 357 3.0 17.0 0.00 0.00 0.00 39 1008.5
20260504180043 70 223 3.0 17.0 0.00 0.00 0.00 36 1008.4
20260504175531 71 312 4.0 12.0 0.00 0.00 0.00 35 1008.4
20260504175030 70 227 4.0 12.0 0.00 0.00 0.00 35 1008.3
20260504174538 70 20 3.0 12.0 0.00 0.00 0.00 40 1008.5
20260504174026 70 125 3.0 11.0 0.00 0.00 0.00 40 1008.5
20260504173529 70 330 4.0 10.0 0.00 0.00 0.00 34 1008.6
20260504173058 71 300 5.0 9.0 0.00 0.00 0.00 37 1008.6
20260504172529 71 292 1.0 8.0 0.00 0.00 0.00 38 1008.5
20260504172029 70 360 1.0 17.0 0.00 0.00 0.00 37 1008.7
20260504171542 69 90 4.0 17.0 0.00 0.00 0.00 35 1008.6
20260504171031 70 281 3.0 17.0 0.00 0.00 0.00 38 1008.7
20260504170526 69 179 4.0 11.0 0.00 0.00 0.00 38 1008.7
20260504151026 64 171 3.0 14.0 0.00 0.00 0.00 38 1009.9
20260504150526 64 289 5.0 14.0 0.00 0.00 0.00 40 1010.0
20260504141029 62 203 2.0 6.0 0.00 0.00 0.00 43 1010.8
20260504140529 62 220 1.0 11.0 0.00 0.00 0.00 42 1010.8
20260504130530 59 107 1.0 7.0 0.00 0.00 0.00 52 1010.7
20260504110529 37 0 0.0 0.0 0.00 0.00 0.00 88 1011.6
20260504100529 35 0 0.0 0.0 0.00 0.00 0.00 87 1011.4
20260504090116 38 0 0.0 0.0 0.00 0.00 0.00 78 1011.1
20260504081556 40 176 0.0 0.0 0.00 0.00 0.00 70 1011.2
20260504081029 41 175 0.0 0.0 0.00 0.00 0.00 69 1011.3
20260504080746 41 0 0.0 0.0 0.00 0.00 0.00 68 1011.2
20260504070124 44 0 0.0 2.0 0.00 0.00 0.00 63 1011.2
20260504050530 41 0 0.0 0.0 0.00 0.00 0.00 71 1011.5
20260504045529 41 0 0.0 0.0 0.00 0.00 0.00 72 1011.5
20260504045029 41 0 0.0 0.0 0.00 0.00 0.00 73 1011.5
20260504044542 41 0 0.0 0.0 0.00 0.00 0.00 73 1011.5
20260504044028 41 0 0.0 0.0 0.00 0.00 0.00 74 1011.5
20260504043529 41 0 0.0 0.0 0.00 0.00 0.00 73 1011.5
20260504043043 41 0 0.0 0.0 0.00 0.00 0.00 72 1011.6
20260504042529 41 0 0.0 0.0 0.00 0.00 0.00 72 1011.5
20260504042030 41 0 0.0 0.0 0.00 0.00 0.00 73 1011.4
20260504041543 41 0 0.0 0.0 0.00 0.00 0.00 74 1011.4
20260504041029 42 0 0.0 0.0 0.00 0.00 0.00 73 1011.4
20260504040530 42 0 0.0 0.0 0.00 0.00 0.00 70 1011.3
20260504040042 42 0 0.0 0.0 0.00 0.00 0.00 69 1011.3
20260504035531 42 0 0.0 0.0 0.00 0.00 0.00 68 1011.3
20260504035029 42 0 0.0 0.0 0.00 0.00 0.00 68 1011.4
20260504034544 42 0 0.0 0.0 0.00 0.00 0.00 68 1011.4
20260504034028 41 0 0.0 0.0 0.00 0.00 0.00 68 1011.3
20260504033528 41 0 0.0 1.0 0.00 0.00 0.00 69 1011.2
20260504033037 41 0 0.0 1.0 0.00 0.00 0.00 70 1011.2
20260504032528 41 0 0.0 1.0 0.00 0.00 0.00 68 1011.2
20260504032030 41 210 0.0 1.0 0.00 0.00 0.00 68 1011.1
20260504031543 41 208 0.0 1.0 0.00 0.00 0.00 69 1011.1
20260504031030 41 208 0.0 1.0 0.00 0.00 0.00 68 1011.2
20260504030530 40 208 0.0 1.0 0.00 0.00 0.00 67 1011.2
20260504030041 41 216 0.0 1.0 0.00 0.00 0.00 68 1011.2
20260504025529 40 214 0.0 1.0 0.00 0.00 0.00 66 1011.2
20260504025029 40 207 0.0 1.0 0.00 0.00 0.00 66 1011.0
20260504024546 41 219 0.0 1.0 0.00 0.00 0.00 65 1011.2
20260504024030 41 219 0.0 1.0 0.00 0.00 0.00 65 1011.3
20260504023531 41 214 0.0 2.0 0.00 0.00 0.00 66 1011.2
20260504023046 41 214 1.0 2.0 0.00 0.00 0.00 62 1011.2
20260504022529 41 214 0.0 2.0 0.00 0.00 0.00 64 1011.3
20260504022030 42 204 0.0 2.0 0.00 0.00 0.00 63 1011.3
20260504021541 42 0 0.0 2.0 0.00 0.00 0.00 62 1011.1
20260504021028 42 213 1.0 1.0 0.00 0.00 0.00 60 1011.1
20260504020528 42 210 1.0 1.0 0.00 0.00 0.00 59 1011.1
20260504020043 42 208 0.0 1.0 0.00 0.00 0.00 59 1011.1
20260504015529 42 205 0.0 1.0 0.00 0.00 0.00 59 1010.9
20260504015030 43 204 0.0 2.0 0.00 0.00 0.00 58 1010.8
20260504014541 43 0 1.0 5.0 0.00 0.00 0.00 56 1010.8
20260504014030 43 255 1.0 5.0 0.00 0.00 0.00 56 1010.7
20260504013529 43 0 0.0 1.0 0.00 0.00 0.00 57 1010.6
20260504013055 43 212 0.0 1.0 0.00 0.00 0.00 56 1010.5
20260504012529 43 0 0.0 2.0 0.00 0.00 0.00 61 1010.5
20260504012029 43 221 0.0 2.0 0.00 0.00 0.00 58 1010.5
20260504011536 43 205 0.0 2.0 0.00 0.00 0.00 57 1010.4
20260504011028 43 205 0.0 2.0 0.00 0.00 0.00 55 1010.3
20260504010528 43 221 0.0 1.0 0.00 0.00 0.00 54 1010.2
20260504010044 44 0 0.0 1.0 0.00 0.00 0.00 52 1010.2
20260504005529 44 202 0.0 1.0 0.00 0.00 0.00 53 1010.1
20260504005029 45 202 0.0 1.0 0.00 0.00 0.00 51 1010.1